Location: Unspecified
(0.0000°N, 0.0000°E)
Time: 23:21:27
(UTC+00:00)

Hubble Space Telescope - Pass Details

Date: 27 October 2020
Orbit: 536 x 540 km, 28.5° (Epoch: 29 October)

Event Time Altitude Azimuth Distance (km) Brightness Sun altitude
Rises 19:22:44 0° 317° (NW) 2,661 4.7 -24.0°
Reaches altitude 10° 19:25:12 10° 329° (NNW) 1,774 3.6 -24.6°
Enters shadow 19:26:12 16° 337° (NNW) 1,458 3.0 -24.9°
